Location: Lake Arresoe
(56.0000°N, 12.5000°E)
Time: 11:28:08
(UTC+02:00)

Resurs 1-4 Rocket - Pass Details

Date: 17 August 2020
Orbit: 799 x 815 km, 98.6° (Epoch: 23 September)

Event Time Altitude Azimuth Distance (km) Brightness Sun altitude
Rises 02:41:02 0° 18° (NNE) 3,332 7.0 -18.3°
Reaches altitude 10° 02:43:26 10° 22° (NNE) 2,395 5.9 -18.2°
Maximum altitude 02:48:39 58° 102° (ESE) 935 2.5 -17.9°
Enters shadow 02:51:36 25° 172° (S) 1,558 3.1 -17.7°
